Showing default

LEMUR-2 IRINA, 68480

Orbit data source: Space-Track

LEMUR-2 IRINA, 68480 is a payload satellite owned by Spire (LU) in SSO that was launched on Mon, 30 Mar 2026 UTC via an FALCON 9 launch vehicle from the Air Force Western Test Range (AFWTR). Payload-class satellites include a variety of spacecraft equipped with specific instruments for various scientific and technological missions. These include communications satellites like Starlink; space stations such as the ISS; scientific satellites like the Hubble; Earth observation satellites from companies like Planet Labs, Umbra, and HawkEye 360; GPS; miniature CubeSats for education and research; and military/defense satellites.

Loading next visibility...
Identifier
68480, 2026-067BS
Orbit
SSO
Country
Flag of LULU / LUXE
Related business
Manufacturer
Spire/Glasgow
Mission
Operational spacecraft
Bus & Motor
CUBESAT 3U, Unknown motor
Mass
7.6 kg wet, 7.6 kg dry
Launch date (UTC)
2026-03-30 (3 months ago)
Launch vehicle
FALCON 9
Launch site
Air Force Western Test Range (AFWTR)
Object type
Payload
Rocket body
Debris
Shape & HBR
Unknown shape, 14.5 m
Radar Cross Section
Medium (>0.1 m² and <1 m²)

Expand to show TLE details & history
Last TLE update: 2 days ago

TLE from 2 days ago
0 LEMUR-2 IRINA
1 68480U 26067BS  26171.34962918  .00002717  00000-0  26719-3 0  9991
2 68480  97.7623 129.7029 0002036 255.7809 104.3184 14.92947331 12208
Epoch: 2026-06-20T08:23Z
TLE epoch observation values (Epoch: 2026-06-20T08:23:27.961Z)
Latitude
-0.00003°
Longitude
95.27088°
Altitude
592.146 km
Speed
7.564 km/s
True Right ascension
08h 38m 48s
True Declination
0° 00' 00"
Sunlit
Object was in daylight at epoch
Visualization orbit readout
Latitude
Unknown
Longitude
Unknown
Altitude
Unknown
Speed
Unknown
Apparent Right ascension
Unknown
Apparent Declination
Unknown
Sunlit
N/A
Visualization observer readout
Local Sidereal Time
09:10:04
Azimuth
Unknown
Elevation
Unknown
Doppler factor
Unknown
Orbital elements
Apogee altitude
587.187 km
Perigee altitude
584.351 km
Semi-major axis
6,963.906 km
Eccentricity
0.0002
Inclination
97.7623°
RAAN
129.7029°
Arg. of periapsis
255.7809°
True anomaly
104.341°
Mean anomaly
104.3184°
Eccentric anomaly
104.3297°
Mean motion
3.73477 °/min
Orbital period
96.39 mins
BSTAR
0.00026719
Loading maneuver chart data...
Computing Atmospheric mass density...
Loading historical data...
Loading historical data...
Loading historical data...
Loading historical data...
Loading historical data...
Loading historical data...
Loading historical data...

Documentation

Showing up to 5 results
|